[[{"header":{"parameterUnit":"m.s-1","parameterCategory":1,"la1":30.2991,"la2":30.254,"lo1":-89.0895,"lo2":-89.0444,"dy":0.0017,"dx":0.0017,"nx":28,"ny":28,"refTime":"2025-06-09T21:00:00:Z","depth":0,"parameterNumber":2,"parameterNumberName":"U-component_of_WINDS"},"data":[0,0,0,0,0,0,0,0,0,0,0,0,0,0,0,0,0,0,0,0,0,0,0,0,0,0,0,0,0,0,0,0,0,0,0,0,0,0,0,0,0,0,0,0,0,0,0,0,0,0,0,0,0,0,0,0,0,0,4.463,4.4631,0,4.4725,4.4726,4.4727,4.4687,4.4685,4.4683,4.4681,4.478,4.4785,4.479,0,0,0,0,0,0,0,0,0,0,0,0,0,4.4419,4.4423,4.463,4.4632,4.4633,4.4725,4.4726,4.4727,4.4688,4.4685,4.4682,4.468,4.4779,4.4784,4.479,0,0,0,0,0,0,0,0,0,0,0,0,0,4.4512,4.4425,4.463,4.4624,4.4624,4.4724,4.4726,4.4727,4.4688,4.4685,4.4682,4.4678,4.4777,4.4784,4.4791,4.4903,0,0,4.4813,4.4816,0,0,0,0,0,0,0,0,4.4507,4.452,4.4624,4.4625,4.4625,4.4691,4.4688,4.4786,4.4689,4.4664,4.4681,4.4677,4.4754,4.4762,4.4788,4.4908,4.4912,4.4813,4.4818,4.4821,4.4823,0,0,0,0,0,0,0,4.45,4.4516,4.4668,4.4625,4.4626,4.4618,4.4627,4.4706,4.4727,4.4666,4.4664,4.4675,4.4753,4.4781,4.479,4.4913,4.4813,4.482,4.4824,4.4827,4.5131,4.5134,0,0,0,0,0,0,4.4494,4.451,4.4665,4.4671,4.4556,4.4624,4.4635,4.4673,4.4726,4.4731,4.4678,4.4673,4.477,4.4781,4.4793,4.4928,4.4821,4.4827,4.4832,4.5127,4.5132,4.5136,0,0,0,0,0,0,4.4489,4.4508,4.4661,4.459,4.4609,4.4631,4.4675,4.4677,4.4704,4.4735,4.4738,4.4702,4.4768,4.4783,4.4876,4.4931,4.4831,4.4837,4.5123,4.5129,4.5134,4.5199,0,0,0,0,0,0,4.4483,4.4506,4.4548,4.4591,4.4613,4.4742,4.4678,4.4681,4.4716,4.4711,4.4758,4.4763,4.4767,4.4865,4.4883,4.4939,4.4843,4.5118,4.5125,4.5132,4.5192,4.5206,4.5218,0,0,0,0,0,4.4476,4.4564,4.4551,4.457,4.4666,4.4745,4.4757,4.4759,4.4721,4.4764,4.4784,4.4762,4.4922,4.4875,4.4895,4.4954,4.5114,4.5123,4.5131,4.5186,4.5203,4.5218,0,0,0,0,0,0,4.4528,4.4569,4.4555,4.4659,4.4699,4.4738,4.4792,4.4777,4.4828,4.4821,4.4822,4.4833,4.4929,4.495,4.4898,4.5065,4.5013,4.5025,4.5047,4.5064,4.5077,4.507,4.4849,0,0,0,0,0,4.4551,4.4611,4.4644,4.4733,4.4753,4.477,4.4804,4.4802,4.4843,4.486,4.4886,4.4928,4.4987,4.5027,4.5084,4.5195,4.5205,4.5245,4.5258,4.5269,4.528,4.534,4.5359,4.5164,4.5164,4.5164,0,0,4.4601,4.463,4.4668,4.4744,4.4774,4.4837,4.4784,4.4853,4.49,4.487,4.4959,4.498,4.5027,4.513,4.5176,4.5151,4.5336,4.5279,4.5288,4.5293,4.5351,4.5369,4.5386,4.517,4.5169,4.5168,0,0,4.4722,4.4751,4.4828,4.4859,4.4905,4.4915,4.4934,4.4976,4.4988,4.5078,4.5057,4.5113,4.5216,4.525,4.5281,4.5416,4.5398,4.5435,4.5504,4.5563,4.5578,4.5592,4.564,4.5657,4.5446,4.5446,4.5446,0,4.4778,4.4871,4.487,4.494,4.4974,4.495,4.5028,4.5059,4.5122,4.5147,4.5117,4.5245,4.5275,4.5385,4.5418,4.5444,4.5466,4.5429,4.5576,4.5589,4.5602,4.5648,4.5666,4.545,4.545,4.5449,4.5449,0,4.4937,4.5002,4.5059,4.5119,4.516,4.5234,4.5245,4.5286,4.5281,4.5294,4.5386,4.5421,4.5484,4.551,4.5505,4.562,4.5603,4.5575,4.5522,4.5625,4.5668,4.5686,4.5456,4.5455,4.5453,4.5452,0,0,4.5095,4.5153,4.5174,4.5201,4.525,4.5301,4.5375,4.5435,4.5471,4.5516,4.5578,4.5665,4.5639,4.5675,4.5674,4.5726,4.5831,4.5691,4.5692,4.5716,4.5959,4.598,4.6001,4.5819,4.5822,4.5825,4.5955,0,4.5221,4.5348,4.5349,4.5467,4.5527,4.5505,4.5569,4.5607,4.5622,4.5676,4.5692,4.5754,4.5716,4.5737,4.5787,4.5807,4.5879,4.5798,4.5877,4.588,4.5866,4.6023,4.6045,4.6167,4.5972,4.5975,4.5977,0,4.5384,4.5433,4.5557,4.5597,4.5622,4.568,4.5736,4.5788,4.583,4.5837,4.5877,4.5868,4.5943,4.5888,4.5993,4.5937,4.597,4.5985,4.5989,4.5997,4.5935,4.6035,4.6206,4.6224,4.6004,4.6002,4.6,0,4.5487,4.5583,4.567,4.5694,4.5743,4.5784,4.5807,4.5846,4.5883,4.5932,4.5956,4.6014,4.6046,4.6091,4.6099,4.6058,4.6204,4.6149,4.6213,4.6213,4.6244,4.6242,4.6423,4.6266,4.6265,4.6265,4.6265,0,4.5627,4.5704,4.5717,4.577,4.5855,4.5856,4.5941,4.596,4.5995,4.6053,4.6037,4.6092,4.6098,4.6154,4.6161,4.6246,4.6261,4.6269,4.627,4.6271,4.627,4.6292,4.6284,4.627,4.6269,4.6268,4.6267,0,4.5756,4.5768,4.5861,4.59,4.5911,4.5973,4.6006,4.6058,4.6071,4.6143,4.6161,4.6182,4.6247,4.6259,4.6336,4.6341,4.6443,4.6435,4.6428,4.6428,4.649,4.6484,4.6692,4.6719,4.6544,4.6545,4.6547,0,4.5845,4.5904,4.5949,4.5985,4.601,4.6069,4.6106,4.611,4.6149,4.6202,4.6247,4.6311,4.6362,4.6468,4.649,4.655,4.6543,4.6612,4.6552,4.6551,4.6544,4.6541,4.6547,4.6623,4.6625,4.6627,4.6628,0,4.6002,4.6005,4.6058,4.6114,4.6158,4.6203,4.6245,4.6276,4.6285,4.633,4.6397,4.6436,4.6515,4.6578,4.6637,4.6661,4.6647,4.6647,4.6664,4.6666,4.6659,4.6664,4.646,4.6642,4.6641,4.664,4.6639,4.6638,4.6114,4.6165,4.6204,4.6264,4.6296,4.6336,4.6386,4.6405,4.646,4.6523,4.6522,4.6595,4.6636,4.6714,4.6742,4.6799,4.6777,4.6803,4.681,4.6816,4.6822,4.665,4.681,4.681,4.6809,4.6809,4.6809,0,4.627,4.6294,4.6349,4.6408,4.6456,4.6437,4.6482,4.6524,4.6587,4.6627,4.6677,4.6753,4.6815,4.6842,4.6903,4.6944,4.6939,4.696,4.6957,4.6963,4.6838,4.6817,4.6963,4.6963,4.6963,4.6963,4.6963,4.6963,4.6356,4.6441,4.6449,4.6549,4.6573,4.6643,4.6671,4.6708,4.6739,4.6825,4.6875,4.6893,4.6928,4.6991,4.7046,4.7053,4.7076,4.71,4.7104,4.6987,4.6971,4.6957,4.6936,4.7105,4.7106,4.7224,4.7225,4.7226]},{"header":{"parameterUnit":"m.s-1","parameterCategory":1,"la1":30.2991,"la2":30.254,"lo1":-89.0895,"lo2":-89.0444,"dy":0.0017,"dx":0.0017,"nx":28,"ny":28,"refTime":"2025-06-09T21:00:00:Z","depth":0,"parameterNumber":3,"parameterNumberName":"V-component_of_WINDS"},"data":[0,0,0,0,0,0,0,0,0,0,0,0,0,0,0,0,0,0,0,0,0,0,0,0,0,0,0,0,0,0,0,0,0,0,0,0,0,0,0,0,0,0,0,0,0,0,0,0,0,0,0,0,0,0,0,0,0,0,1.1448,1.1448,0,1.1499,1.1499,1.15,1.1511,1.1511,1.1511,1.151,1.1565,1.1567,1.1568,0,0,0,0,0,0,0,0,0,0,0,0,0,1.136,1.1362,1.1447,1.1448,1.1449,1.1499,1.15,1.15,1.1511,1.1511,1.1511,1.151,1.1564,1.1566,1.1568,0,0,0,0,0,0,0,0,0,0,0,0,0,1.1404,1.1362,1.1447,1.146,1.1462,1.1499,1.15,1.15,1.1512,1.1511,1.151,1.151,1.1563,1.1566,1.1569,1.1597,0,0,1.1577,1.1578,0,0,0,0,0,0,0,0,1.1401,1.1407,1.1458,1.146,1.1461,1.1498,1.1489,1.1533,1.1512,1.1493,1.151,1.151,1.1543,1.1547,1.1558,1.1599,1.1602,1.1577,1.1579,1.158,1.1581,0,0,0,0,0,0,0,1.1398,1.1405,1.1468,1.1459,1.1461,1.1464,1.1469,1.1497,1.1521,1.1494,1.1495,1.1501,1.1544,1.1556,1.156,1.1602,1.1577,1.158,1.1581,1.1582,1.1668,1.1668,0,0,0,0,0,0,1.1393,1.1402,1.1466,1.1469,1.1429,1.1466,1.1472,1.1487,1.152,1.1525,1.1502,1.1501,1.1551,1.1557,1.1562,1.1596,1.158,1.1583,1.1584,1.1667,1.1668,1.1669,0,0,0,0,0,0,1.1391,1.1398,1.1464,1.1436,1.1445,1.1468,1.1485,1.1488,1.15,1.1526,1.153,1.1509,1.1551,1.1558,1.1588,1.1598,1.1584,1.1586,1.1666,1.1667,1.1668,1.1665,0,0,0,0,0,0,1.1388,1.1397,1.1408,1.1436,1.1446,1.1489,1.1485,1.149,1.1504,1.1505,1.1534,1.1538,1.1551,1.1583,1.159,1.1601,1.1588,1.1665,1.1667,1.1668,1.1664,1.1666,1.1667,0,0,0,0,0,1.1385,1.1406,1.1409,1.1416,1.146,1.1489,1.1495,1.1509,1.1505,1.1516,1.1532,1.1537,1.1596,1.1586,1.1594,1.1606,1.1665,1.1666,1.1668,1.1663,1.1665,1.1667,0,0,0,0,0,0,1.1379,1.141,1.1413,1.1444,1.1464,1.1491,1.1506,1.1511,1.1533,1.1532,1.1549,1.1556,1.1584,1.1598,1.1587,1.1635,1.163,1.1633,1.1624,1.1626,1.1627,1.1623,1.1591,0,0,0,0,0,1.1381,1.1402,1.1428,1.1452,1.1462,1.1482,1.1496,1.1504,1.1526,1.1535,1.1554,1.1575,1.1598,1.1613,1.1636,1.1666,1.1672,1.1678,1.168,1.1681,1.1683,1.1699,1.1702,1.1673,1.1673,1.1673,0,0,1.1386,1.1406,1.1418,1.1452,1.1468,1.149,1.1489,1.1512,1.1528,1.1539,1.1567,1.1582,1.1607,1.1636,1.1651,1.1649,1.1692,1.1682,1.1683,1.1685,1.1701,1.1704,1.1706,1.1674,1.1674,1.1674,0,0,1.1406,1.1423,1.1445,1.1461,1.1486,1.1499,1.1504,1.153,1.154,1.1569,1.1577,1.1596,1.1636,1.1653,1.1667,1.1692,1.1697,1.1699,1.1706,1.1722,1.1724,1.1726,1.1734,1.1737,1.1701,1.1701,1.1701,0,1.1409,1.1442,1.1455,1.1478,1.1492,1.1501,1.1523,1.1539,1.157,1.158,1.1578,1.1627,1.1644,1.1678,1.1684,1.1695,1.1701,1.1696,1.1722,1.1725,1.1727,1.1735,1.1738,1.1701,1.1701,1.1701,1.1701,0,1.1444,1.1466,1.1481,1.1509,1.1526,1.1548,1.1565,1.158,1.1587,1.16,1.1629,1.165,1.1677,1.1685,1.1693,1.172,1.1718,1.1719,1.1715,1.1729,1.1737,1.174,1.1701,1.1701,1.1701,1.1701,0,0,1.1462,1.1497,1.1502,1.1515,1.1543,1.156,1.1583,1.1608,1.162,1.1641,1.166,1.1693,1.1693,1.1709,1.1719,1.1733,1.175,1.1732,1.1732,1.1734,1.178,1.1779,1.1782,1.1753,1.1754,1.1755,1.1777,0,1.1485,1.1524,1.1537,1.157,1.159,1.1599,1.1618,1.1637,1.165,1.1669,1.1684,1.1706,1.1706,1.1715,1.1729,1.1745,1.1759,1.1743,1.1771,1.1772,1.1764,1.1786,1.1785,1.1806,1.1781,1.1781,1.1782,0,1.1517,1.1537,1.1572,1.1596,1.1605,1.1622,1.1646,1.1664,1.1686,1.1694,1.1711,1.1719,1.1743,1.1737,1.177,1.1759,1.1771,1.178,1.1781,1.1784,1.1778,1.1789,1.1813,1.1816,1.1787,1.1786,1.1786,0,1.1526,1.1562,1.1587,1.1598,1.1627,1.1638,1.1651,1.1672,1.1686,1.1707,1.1716,1.174,1.1753,1.1771,1.1785,1.178,1.1816,1.1812,1.1824,1.1823,1.1831,1.183,1.1856,1.1839,1.1839,1.1839,1.1839,0,1.1549,1.157,1.1591,1.1607,1.163,1.1644,1.1667,1.1681,1.1699,1.1717,1.1727,1.1744,1.1762,1.1781,1.1793,1.1817,1.1824,1.1831,1.1833,1.183,1.1829,1.1838,1.1837,1.184,1.184,1.184,1.184,0,1.1563,1.1578,1.1606,1.1631,1.1637,1.1653,1.1675,1.169,1.1703,1.1726,1.1732,1.1752,1.1775,1.1791,1.1822,1.1829,1.1856,1.1859,1.1848,1.1849,1.186,1.1858,1.1892,1.1897,1.1877,1.1877,1.1878,0,1.1577,1.1593,1.1619,1.1631,1.1644,1.1664,1.1678,1.1693,1.1707,1.1732,1.1745,1.1768,1.1788,1.1824,1.1842,1.1865,1.1868,1.1878,1.1872,1.1867,1.1867,1.1866,1.1868,1.1879,1.1879,1.1879,1.188,0,1.16,1.1606,1.1626,1.1648,1.1664,1.1682,1.1701,1.1711,1.1728,1.1744,1.1767,1.1782,1.1812,1.1836,1.186,1.1873,1.1879,1.1881,1.1885,1.1881,1.1874,1.1878,1.185,1.1881,1.1881,1.188,1.188,1.188,1.1614,1.1628,1.1648,1.167,1.1685,1.1701,1.1717,1.1731,1.175,1.1775,1.1783,1.1807,1.1828,1.1861,1.1874,1.1894,1.1893,1.1899,1.19,1.1901,1.19,1.1871,1.1898,1.1898,1.1898,1.1898,1.1898,0,1.1637,1.165,1.1669,1.1694,1.1711,1.1714,1.1735,1.1748,1.1769,1.1788,1.1806,1.1833,1.1855,1.1874,1.1897,1.1909,1.1912,1.1914,1.1913,1.1916,1.19,1.1894,1.1911,1.1911,1.1911,1.1911,1.1911,1.1911,1.1651,1.1675,1.1683,1.1715,1.1728,1.1751,1.1762,1.1778,1.1792,1.1821,1.1839,1.1851,1.187,1.1894,1.1914,1.1919,1.1927,1.1929,1.1934,1.1919,1.1917,1.1916,1.191,1.193,1.193,1.1949,1.1949,1.1949]}]]